| time (UTC) | temp F | wind direction | speed MPH | gust MPH | rain 1hr in | rain 24hr in | rain mn in | humidity % | barometer mb |
| 20260505124550 | 59 | 267 | 4.0 | 12.0 | 0.00 | 0.00 | 0.00 | 43 | 1009.9 |
| 20260505123059 | 59 | 292 | 3.0 | 10.0 | 0.00 | 0.00 | 0.00 | 56 | 1010.1 |
| 20260505121546 | 58 | 319 | 2.0 | 6.0 | 0.00 | 0.00 | 0.00 | 100 | 1010.0 |
| 20260505120046 | 59 | 317 | 4.0 | 11.0 | 0.00 | 0.00 | 0.00 | 100 | 1010.0 |
| 20260505114544 | 59 | 298 | 2.0 | 8.0 | 0.00 | 0.00 | 0.00 | 100 | 1010.0 |
| 20260505113043 | 57 | 305 | 4.0 | 15.0 | 0.00 | 0.00 | 0.00 | 100 | 1010.2 |
| 20260505111543 | 56 | 299 | 1.0 | 9.0 | 0.00 | 0.00 | 0.00 | 100 | 1010.1 |
| 20260505101537 | 56 | 271 | 1.0 | 5.0 | 0.00 | 0.00 | 0.00 | 100 | 1010.5 |
| 20260505100035 | 56 | 286 | 2.0 | 7.0 | 0.00 | 0.00 | 0.00 | 100 | 1010.6 |
| 20260505094533 | 55 | 259 | 1.0 | 5.0 | 0.00 | 0.00 | 0.00 | 100 | 1010.6 |
| 20260505093037 | 55 | 206 | 1.0 | 5.0 | 0.00 | 0.00 | 0.00 | 100 | 1010.6 |
| 20260505091536 | 53 | 297 | 1.0 | 7.0 | 0.00 | 0.00 | 0.00 | 100 | 1010.8 |
| 20260505090030 | 52 | 265 | 2.0 | 5.0 | 0.00 | 0.00 | 0.00 | 100 | 1010.7 |
| 20260505084531 | 53 | 313 | 3.0 | 6.0 | 0.00 | 0.00 | 0.00 | 100 | 1010.7 |
| 20260505083033 | 54 | 304 | 1.0 | 5.0 | 0.00 | 0.00 | 0.00 | 100 | 1010.8 |
| 20260505081525 | 52 | 286 | 2.0 | 5.0 | 0.00 | 0.00 | 0.00 | 100 | 1010.8 |
| 20260505080023 | 51 | 307 | 3.0 | 6.0 | 0.00 | 0.00 | 0.00 | 100 | 1010.7 |
| 20260505074521 | 49 | 292 | 2.0 | 7.0 | 0.00 | 0.00 | 0.00 | 100 | 1010.7 |
| 20260505073021 | 50 | 302 | 2.0 | 6.0 | 0.00 | 0.00 | 0.00 | 100 | 1010.7 |
| 20260505071519 | 49 | 302 | 2.0 | 5.0 | 0.00 | 0.00 | 0.00 | 100 | 1010.6 |
| 20260505070019 | 50 | 309 | 2.0 | 7.0 | 0.00 | 0.00 | 0.00 | 100 | 1010.7 |
| 20260505064517 | 49 | 299 | 2.0 | 5.0 | 0.00 | 0.00 | 0.00 | 100 | 1010.5 |
| 20260505063016 | 49 | 306 | 2.0 | 5.0 | 0.00 | 0.00 | 0.00 | 100 | 1010.6 |
| 20260505061511 | 47 | 299 | 2.0 | 5.0 | 0.00 | 0.00 | 0.00 | 100 | 1010.6 |
| 20260505060009 | 47 | 309 | 4.0 | 9.0 | 0.00 | 0.00 | 0.00 | 100 | 1010.7 |
| 20260505054506 | 46 | 321 | 3.0 | 8.0 | 0.00 | 0.00 | 0.00 | 100 | 1010.6 |
| 20260505053002 | 44 | 312 | 1.0 | 4.0 | 0.00 | 0.00 | 0.00 | 100 | 1010.5 |
| 20260505051614 | 43 | 312 | 1.0 | 4.0 | 0.00 | 0.00 | 0.00 | 100 | 1010.4 |
| 20260505041549 | 36 | 32 | 1.0 | 3.0 | 0.00 | 0.00 | 0.00 | 100 | 1010.4 |
| 20260505040042 | 36 | 143 | 0.0 | 1.0 | 0.00 | 0.00 | 0.00 | 100 | 1010.5 |
| 20260505034541 | 37 | 311 | 0.0 | 1.0 | 0.00 | 0.00 | 0.00 | 100 | 1010.5 |
| 20260505033018 | 38 | 311 | 0.0 | 0.0 | 0.00 | 0.00 | 0.00 | 100 | 1010.6 |
| 20260505031518 | 38 | 311 | 0.0 | 0.0 | 0.00 | 0.00 | 0.00 | 100 | 1010.6 |
| 20260505030016 | 37 | 311 | 0.0 | 0.0 | 0.00 | 0.00 | 0.00 | 100 | 1010.6 |
| 20260505024516 | 38 | 311 | 0.0 | 0.0 | 0.00 | 0.00 | 0.00 | 100 | 1010.5 |
| 20260505023016 | 39 | 311 | 0.0 | 1.0 | 0.00 | 0.00 | 0.00 | 100 | 1010.3 |
| 20260505021515 | 39 | 311 | 0.0 | 0.0 | 0.00 | 0.00 | 0.00 | 100 | 1010.4 |
| 20260505020014 | 39 | 311 | 1.0 | 2.0 | 0.00 | 0.00 | 0.00 | 100 | 1010.4 |
| 20260505014513 | 39 | 311 | 0.0 | 0.0 | 0.00 | 0.00 | 0.00 | 100 | 1010.5 |
| 20260505013012 | 38 | 311 | 0.0 | 2.0 | 0.00 | 0.00 | 0.00 | 100 | 1010.6 |
| 20260505011513 | 37 | 311 | 0.0 | 2.0 | 0.00 | 0.00 | 0.00 | 100 | 1010.7 |
| 20260505010010 | 37 | 311 | 0.0 | 1.0 | 0.00 | 0.00 | 0.00 | 100 | 1010.6 |
| 20260505004509 | 36 | 311 | 0.0 | 0.0 | 0.00 | 0.00 | 0.00 | 100 | 1010.7 |
| 20260505003017 | 37 | 311 | 0.0 | 2.0 | 0.00 | 0.00 | 0.00 | 100 | 1010.6 |
| 20260505001505 | 37 | 311 | 0.0 | 2.0 | 0.00 | 0.00 | 0.00 | 100 | 1010.7 |
| 20260505000005 | 37 | 311 | 0.0 | 0.0 | 0.00 | 0.00 | 0.00 | 100 | 1010.7 |
| 20260504234504 | 37 | 311 | 0.0 | 0.0 | 0.00 | 0.00 | 0.00 | 100 | 1010.8 |
| 20260504233001 | 37 | 311 | 0.0 | 1.0 | 0.00 | 0.00 | 0.00 | 100 | 1010.7 |
| 20260504231604 | 38 | 313 | 0.0 | 3.0 | 0.00 | 0.00 | 0.00 | 100 | 1010.7 |
| 20260504230059 | 39 | 313 | 0.0 | 0.0 | 0.00 | 0.00 | 0.00 | 100 | 1010.8 |
| 20260504224555 | 39 | 313 | 0.0 | 0.0 | 0.00 | 0.00 | 0.00 | 100 | 1010.9 |
| 20260504223053 | 39 | 313 | 1.0 | 3.0 | 0.00 | 0.00 | 0.00 | 100 | 1010.8 |
| 20260504221550 | 39 | 290 | 0.0 | 0.0 | 0.00 | 0.00 | 0.00 | 100 | 1010.9 |
| 20260504220048 | 40 | 290 | 0.0 | 0.0 | 0.00 | 0.00 | 0.00 | 100 | 1011.0 |
| 20260504214553 | 41 | 290 | 0.0 | 0.0 | 0.00 | 0.00 | 0.00 | 100 | 1011.0 |
| 20260504213044 | 41 | 290 | 0.0 | 0.0 | 0.00 | 0.00 | 0.00 | 100 | 1011.1 |
| 20260504211541 | 42 | 290 | 0.0 | 0.0 | 0.00 | 0.00 | 0.00 | 100 | 1011.1 |
| 20260504210043 | 43 | 290 | 0.0 | 0.0 | 0.00 | 0.00 | 0.00 | 100 | 1011.0 |
| 20260504204538 | 44 | 290 | 0.0 | 0.0 | 0.00 | 0.00 | 0.00 | 100 | 1011.0 |
| 20260504203049 | 45 | 290 | 0.0 | 0.0 | 0.00 | 0.00 | 0.00 | 100 | 1011.0 |
| 20260504201531 | 46 | 290 | 0.0 | 0.0 | 0.00 | 0.00 | 0.00 | 100 | 1010.9 |
| 20260504200026 | 47 | 290 | 0.0 | 0.0 | 0.00 | 0.00 | 0.00 | 100 | 1010.9 |
| 20260504194523 | 47 | 290 | 0.0 | 0.0 | 0.00 | 0.00 | 0.00 | 100 | 1010.9 |
| 20260504193020 | 48 | 292 | 1.0 | 3.0 | 0.00 | 0.00 | 0.00 | 100 | 1010.8 |
| 20260504191523 | 49 | 293 | 0.0 | 0.0 | 0.00 | 0.00 | 0.00 | 100 | 1010.7 |
| 20260504190014 | 50 | 293 | 0.0 | 0.0 | 0.00 | 0.00 | 0.00 | 100 | 1010.6 |
| 20260504184511 | 51 | 293 | 1.0 | 3.0 | 0.00 | 0.00 | 0.00 | 100 | 1010.4 |
| 20260504183008 | 52 | 293 | 2.0 | 4.0 | 0.00 | 0.00 | 0.00 | 100 | 1010.3 |
| 20260504181507 | 53 | 286 | 2.0 | 5.0 | 0.00 | 0.00 | 0.00 | 100 | 1010.3 |
| 20260504180007 | 54 | 286 | 2.0 | 4.0 | 0.00 | 0.00 | 0.00 | 100 | 1010.3 |
| 20260504174507 | 54 | 299 | 3.0 | 5.0 | 0.00 | 0.00 | 0.00 | 100 | 1010.2 |
| 20260504173005 | 55 | 286 | 2.0 | 6.0 | 0.00 | 0.00 | 0.00 | 100 | 1010.2 |
| 20260504171503 | 55 | 284 | 3.0 | 8.0 | 0.00 | 0.00 | 0.00 | 100 | 1010.2 |
| 20260504160103 | 59 | 298 | 4.0 | 8.0 | 0.00 | 0.00 | 0.00 | 100 | 1009.9 |